When you browse on this site, cookies collect data to enhance your experience and personalize the content and advertising you see.
Visit our Privacy Policy to learn more. By continuing to use the site, you agree to this use of cookies and data.
  • In Sweden
  • List of Countries
  • For 7 days
  • Water Temperature
  • Satellite Maps
  • Weather Map
  • Weather Widgets
  • user-avatar
    Login

    Hourly Weather Janiszewo

    Today, 27 May, Monday

    Time Temperature Precipitation Wind Pressure Humidity
    00:00 +13°C° 0 mm 3 mps 749 mmHg 85%
    01:00 +13°C° 0 mm 3 mps 749 mmHg 87%
    02:00 +12°C° 0 mm 3 mps 749 mmHg 88%
    03:00 +12°C° 0 mm 4 mps 749 mmHg 89%
    04:00 +12°C° 0 mm 4 mps 749 mmHg 90%
    05:00 +14°C° 0 mm 4 mps 748 mmHg 85%
    06:00 +17°C° 0 mm 4 mps 748 mmHg 80%
    07:00 +17°C° 0 mm 5 mps 748 mmHg 75%
    08:00 +20°C° 0 mm 5 mps 748 mmHg 70%
    09:00 +21°C° 0 mm 6 mps 748 mmHg 64%
    10:00 +22°C° 0 mm 7 mps 748 mmHg 59%
    11:00 +23°C° 0 mm 6 mps 748 mmHg 57%
    12:00 +23°C° 0 mm 6 mps 748 mmHg 56%
    13:00 +24°C° 0 mm 6 mps 748 mmHg 55%
    14:00 +25°C° 0.2 mm 5 mps 748 mmHg 56%
    15:00 +25°C° 0.2 mm 5 mps 748 mmHg 57%
    16:00 +25°C° 0.2 mm 4 mps 747 mmHg 58%
    17:00 +22°C° 0.1 mm 3 mps 747 mmHg 64%
    18:00 +21°C° 0.1 mm 2 mps 747 mmHg 71%
    19:00 +21°C° 0.1 mm 1 mps 747 mmHg 77%
    20:00 +20°C° 0 mm 1 mps 747 mmHg 80%
    21:00 +17°C° 0 mm 2 mps 747 mmHg 83%
    22:00 +16°C° 0 mm 2 mps 747 mmHg 86%
    23:00 +16°C° 0 mm 2 mps 747 mmHg 87%

    Tomorrow, 28 May, Tuesday

    Time Temperature Precipitation Wind Pressure Humidity
    00:00 +17°C° 0 mm 2 mps 746 mmHg 87%
    01:00 +17°C° 0 mm 2 mps 746 mmHg 87%
    02:00 +17°C° 1.1 mm 2 mps 746 mmHg 90%
    03:00 +16°C° 1.1 mm 2 mps 745 mmHg 93%
    04:00 +16°C° 1.1 mm 2 mps 745 mmHg 96%
    05:00 +17°C° 3 mm 3 mps 744 mmHg 95%
    06:00 +17°C° 3 mm 3 mps 744 mmHg 95%
    07:00 +17°C° 3 mm 4 mps 744 mmHg 94%
    08:00 +17°C° 0.3 mm 4 mps 744 mmHg 93%
    09:00 +17°C° 0.3 mm 4 mps 744 mmHg 92%
    10:00 +17°C° 0.3 mm 4 mps 744 mmHg 90%
    11:00 +17°C° 0.3 mm 4 mps 744 mmHg 91%
    12:00 +17°C° 0.3 mm 4 mps 744 mmHg 91%
    13:00 +17°C° 0.3 mm 3 mps 744 mmHg 92%
    14:00 +17°C° 0.1 mm 4 mps 745 mmHg 91%
    15:00 +15°C° 0.1 mm 5 mps 745 mmHg 90%
    16:00 +15°C° 0.1 mm 5 mps 745 mmHg 90%
    17:00 +14°C° 0.2 mm 6 mps 746 mmHg 90%
    18:00 +13°C° 0.2 mm 6 mps 746 mmHg 91%
    19:00 +11°C° 0.2 mm 6 mps 747 mmHg 92%
    20:00 +11°C° 0.1 mm 6 mps 747 mmHg 92%
    21:00 +12°C° 0.1 mm 5 mps 748 mmHg 93%
    22:00 +10°C° 0.1 mm 5 mps 748 mmHg 93%
    23:00 +9°C° 0 mm 5 mps 749 mmHg 91%

    Day after tomorrow, 29 May, Wednesday

    Time Temperature Precipitation Wind Pressure Humidity
    00:00 +9°C° 0 mm 5 mps 749 mmHg 90%
    01:00 +8°C° 0 mm 5 mps 750 mmHg 89%
    02:00 +8°C° 0 mm 5 mps 750 mmHg 89%
    03:00 +7°C° 0 mm 4 mps 751 mmHg 89%
    04:00 +6°C° 0 mm 4 mps 751 mmHg 89%
    05:00 +7°C° 0 mm 4 mps 752 mmHg 85%
    06:00 +8°C° 0 mm 5 mps 752 mmHg 81%
    07:00 +9°C° 0 mm 5 mps 753 mmHg 77%
    08:00 +10°C° 0 mm 5 mps 753 mmHg 72%
    09:00 +13°C° 0 mm 5 mps 754 mmHg 67%
    10:00 +14°C° 0 mm 4 mps 754 mmHg 62%
    11:00 +15°C° 0 mm 4 mps 754 mmHg 59%
    12:00 +17°C° 0 mm 4 mps 754 mmHg 56%
    13:00 +18°C° 0 mm 4 mps 755 mmHg 53%
    14:00 +18°C° 0 mm 4 mps 755 mmHg 53%
    15:00 +18°C° 0 mm 4 mps 755 mmHg 54%
    16:00 +18°C° 0 mm 4 mps 755 mmHg 54%
    17:00 +17°C° 0 mm 3 mps 755 mmHg 60%
    18:00 +14°C° 0 mm 3 mps 755 mmHg 66%
    19:00 +14°C° 0 mm 2 mps 756 mmHg 71%
    20:00 +13°C° 0 mm 2 mps 756 mmHg 76%
    21:00 +10°C° 0 mm 2 mps 757 mmHg 80%
    22:00 +9°C° 0 mm 2 mps 757 mmHg 85%
    23:00 +8°C° 0 mm 2 mps 757 mmHg 82%

    30 May, Thursday

    Time Temperature Precipitation Wind Pressure Humidity
    00:00 +8°C° 0 mm 2 mps 757 mmHg 79%
    01:00 +7°C° 0 mm 2 mps 757 mmHg 76%
    02:00 +6°C° 0 mm 2 mps 757 mmHg 74%
    03:00 +6°C° 0 mm 2 mps 757 mmHg 73%
    04:00 +7°C° 0 mm 1 mps 757 mmHg 72%
    05:00 +8°C° 0 mm 1 mps 758 mmHg 68%
    06:00 +10°C° 0 mm 1 mps 758 mmHg 64%
    07:00 +12°C° 0 mm 1 mps 758 mmHg 60%
    08:00 +13°C° 0 mm 1 mps 758 mmHg 58%
    09:00 +15°C° 0 mm 1 mps 758 mmHg 56%
    10:00 +18°C° 0 mm 1 mps 758 mmHg 54%
    11:00 +19°C° 0 mm 1 mps 757 mmHg 52%
    12:00 +19°C° 0 mm 2 mps 757 mmHg 50%
    13:00 +19°C° 0 mm 2 mps 757 mmHg 48%
    14:00 +20°C° 0 mm 2 mps 757 mmHg 48%
    15:00 +20°C° 0 mm 2 mps 757 mmHg 49%
    16:00 +20°C° 0 mm 2 mps 756 mmHg 49%
    17:00 +19°C° 0 mm 2 mps 756 mmHg 55%
    18:00 +18°C° 0 mm 2 mps 756 mmHg 61%
    19:00 +18°C° 0 mm 1 mps 757 mmHg 66%
    20:00 +16°C° 0 mm 2 mps 757 mmHg 69%
    21:00 +14°C° 0 mm 2 mps 757 mmHg 71%
    22:00 +12°C° 0 mm 3 mps 757 mmHg 74%
    23:00 +12°C° 0 mm 3 mps 757 mmHg 75%

    31 May, Friday

    Time Temperature Precipitation Wind Pressure Humidity
    00:00 +11°C° 0 mm 3 mps 756 mmHg 76%
    01:00 +11°C° 0 mm 3 mps 756 mmHg 78%
    02:00 +10°C° 0 mm 3 mps 756 mmHg 78%
    03:00 +10°C° 0 mm 3 mps 756 mmHg 78%
    04:00 +10°C° 0 mm 3 mps 756 mmHg 79%
    05:00 +12°C° 0 mm 3 mps 755 mmHg 77%
    06:00 +13°C° 0 mm 3 mps 755 mmHg 74%
    07:00 +16°C° 0 mm 3 mps 755 mmHg 72%
    08:00 +18°C° 0 mm 3 mps 755 mmHg 69%
    09:00 +20°C° 0 mm 3 mps 755 mmHg 66%
    10:00 +21°C° 0 mm 4 mps 754 mmHg 63%
    11:00 +22°C° 0.2 mm 4 mps 754 mmHg 63%
    12:00 +22°C° 0.2 mm 4 mps 754 mmHg 62%
    13:00 +23°C° 0.2 mm 4 mps 753 mmHg 62%
    14:00 +22°C° 1.1 mm 4 mps 753 mmHg 65%
    15:00 +22°C° 1.1 mm 4 mps 753 mmHg 69%
    16:00 +22°C° 1.1 mm 4 mps 753 mmHg 73%
    17:00 +20°C° 1.1 mm 4 mps 753 mmHg 79%
    18:00 +19°C° 1.1 mm 4 mps 753 mmHg 84%
    19:00 +17°C° 1.1 mm 4 mps 753 mmHg 90%
    20:00 +17°C° 0.2 mm 4 mps 754 mmHg 92%
    21:00 +15°C° 0.2 mm 4 mps 754 mmHg 93%
    22:00 +14°C° 0.2 mm 5 mps 755 mmHg 94%
    23:00 +14°C° 0 mm 5 mps 755 mmHg 94%

    1 June, Saturday

    Time Temperature Precipitation Wind Pressure Humidity
    00:00 +13°C° 0 mm 5 mps 755 mmHg 94%
    01:00 +11°C° 0 mm 6 mps 756 mmHg 94%
    02:00 +11°C° 0.1 mm 6 mps 756 mmHg 93%
    03:00 +10°C° 0.1 mm 6 mps 757 mmHg 93%
    04:00 +10°C° 0.1 mm 6 mps 757 mmHg 92%
    05:00 +9°C° 0 mm 6 mps 757 mmHg 91%
    06:00 +9°C° 0 mm 6 mps 758 mmHg 89%
    07:00 +9°C° 0 mm 6 mps 758 mmHg 88%
    08:00 +10°C° 0 mm 6 mps 759 mmHg 79%
    09:00 +13°C° 0 mm 6 mps 759 mmHg 70%
    10:00 +15°C° 0 mm 7 mps 759 mmHg 61%
    11:00 +15°C° 0 mm 7 mps 759 mmHg 56%
    12:00 +16°C° 0 mm 7 mps 760 mmHg 52%
    13:00 +17°C° 0 mm 7 mps 760 mmHg 47%
    14:00 +17°C° 0 mm 7 mps 760 mmHg 47%
    15:00 +17°C° 0 mm 7 mps 760 mmHg 48%
    16:00 +17°C° 0 mm 7 mps 760 mmHg 48%
    17:00 +15°C° 0 mm 6 mps 760 mmHg 53%
    18:00 +13°C° 0 mm 5 mps 760 mmHg 57%
    19:00 +10°C° 0 mm 5 mps 761 mmHg 62%
    20:00 +10°C° 0 mm 4 mps 761 mmHg 62%
    21:00 +8°C° 0 mm 4 mps 762 mmHg 63%
    22:00 +6°C° 0 mm 4 mps 762 mmHg 64%
    23:00 +6°C° 0 mm 4 mps 762 mmHg 64%
    Show more